User: anonymous   Login
Location: ????????
(55.0097°N, 38.5678°E)
Time: 14:11:47
(UTC+00:00)
Language:

Cosmos 1538 Rocket - Orbit

View from above orbital plane
View from above orbital plane
View from above satellite
View from above satellite

Ground track
Ground track

The orbit data is extracted from the following two-line orbital elements,

1 14760U 84019B   24170.19534920  .00000425  00000-0  15295-3 0  9993
2 14760  74.0431 108.1785 0026522  58.5047 301.8692 14.36530172110750
Epoch (UTC): 18 June 2024 04:41:18
Eccentricity: 0.0026522
inclination: 74.0431°
perigee height: 751 km
apogee height: 789 km
right ascension of ascending node: 108.1785°
argument of perigee: 58.5047°
revolutions per day: 14.36530172
mean anomaly at epoch: 301.8692°
orbit number at epoch: 11075

The dashed part of the orbit path shows where the satellite is in the earth's shadow,  

DLR